GW6881 Weather Reports


Display with metric or nautical units.
time (UTC)temp
F
wind
direction
speed
MPH
gust
MPH
rain 1hr
in
rain 24hr
in
rain mn
in
humidity
%
barometer
mb
20260507151016 73 270 1.0 4.0 0.00 0.00 0.00 43 1010.9
20260507150016 72 225 1.0 2.0 0.00 0.00 0.00 45 1011.0
20260507145016 71 90 1.0 3.0 0.00 0.00 0.00 44 1011.0
20260507144016 72 0.0 2.0 0.00 0.00 0.00 44 1011.0
20260507143016 72 248 1.0 4.0 0.00 0.00 0.00 45 1011.1
20260507142016 71 90 1.0 4.0 0.00 0.00 0.00 45 1011.3
20260507141056 71 0.0 2.0 0.00 0.00 0.00 47 1011.2
20260507140016 70 203 1.0 4.0 0.00 0.00 0.00 48 1011.2
20260507135015 71 0.0 1.0 0.00 0.00 0.00 45 1011.3
20260507134015 71 225 1.0 2.0 0.00 0.00 0.00 44 1011.3
20260507133015 72 225 2.0 4.0 0.00 0.00 0.00 44 1011.3
20260507132016 72 0.0 3.0 0.00 0.00 0.00 47 1011.3
20260507131016 72 248 1.0 3.0 0.00 0.00 0.00 46 1011.4
20260507130016 72 248 1.0 6.0 0.00 0.00 0.00 45 1011.6
20260507125036 72 0.0 2.0 0.00 0.00 0.00 48 1011.6
20260507124016 70 248 1.0 5.0 0.00 0.00 0.00 46 1011.7
20260507123016 70 225 1.0 6.0 0.00 0.00 0.00 48 1011.7
20260507122016 71 225 1.0 3.0 0.00 0.00 0.00 49 1011.8
20260507121016 70 225 1.0 5.0 0.00 0.00 0.00 48 1011.8
20260507120016 70 203 1.0 4.0 0.00 0.00 0.00 49 1011.8
20260507115016 70 225 1.0 5.0 0.00 0.00 0.00 49 1011.9
20260507114016 69 225 2.0 4.0 0.00 0.00 0.00 52 1012.0
20260507113016 68 225 2.0 5.0 0.00 0.00 0.00 52 1012.2
20260507112016 68 0.0 1.0 0.00 0.00 0.00 56 1012.1
20260507111016 67 203 1.0 5.0 0.00 0.00 0.00 54 1012.3
20260507110016 67 248 1.0 3.0 0.00 0.00 0.00 57 1012.3
20260507105016 66 203 1.0 3.0 0.00 0.00 0.00 55 1012.2
20260507104036 67 0.0 2.0 0.00 0.00 0.00 57 1012.3
20260507103016 67 315 1.0 3.0 0.00 0.00 0.00 58 1012.3
20260507102016 66 225 1.0 3.0 0.00 0.00 0.00 58 1012.5
20260507101016 64 0.0 3.0 0.00 0.00 0.00 62 1012.4
20260507100016 64 225 2.0 5.0 0.00 0.00 0.00 60 1012.3
20260507095016 64 225 1.0 3.0 0.00 0.00 0.00 62 1012.3
20260507094016 63 203 1.0 3.0 0.00 0.00 0.00 64 1012.3
20260507093016 63 248 1.0 2.0 0.00 0.00 0.00 64 1012.3
20260507092036 63 225 1.0 5.0 0.00 0.00 0.00 63 1012.1
20260507091016 63 248 2.0 4.0 0.00 0.00 0.00 63 1012.2
20260507090036 63 248 2.0 9.0 0.00 0.00 0.00 63 1012.1
20260507085016 63 225 2.0 5.0 0.00 0.00 0.00 62 1012.1
20260507084016 64 270 1.0 4.0 0.00 0.00 0.00 61 1011.9
20260507083016 64 338 1.0 4.0 0.00 0.00 0.00 60 1011.6
20260507082016 64 293 1.0 4.0 0.00 0.00 0.00 59 1011.5
20260507081156 64 270 1.0 3.0 0.00 0.00 0.00 60 1011.4
20260507080016 64 293 1.0 3.0 0.00 0.00 0.00 61 1011.3
20260507075016 64 315 1.0 4.0 0.00 0.00 0.00 62 1011.3
20260507074016 64 225 1.0 4.0 0.00 0.00 0.00 62 1011.3
20260507072016 64 248 1.0 5.0 0.00 0.00 0.00 63 1011.0
20260507071016 63 248 2.0 6.0 0.00 0.00 0.00 65 1010.9
20260507070016 64 248 1.0 5.0 0.00 0.00 0.00 62 1011.0
20260507065016 64 338 1.0 5.0 0.00 0.00 0.00 62 1010.9
20260507064036 63 225 1.0 5.0 0.00 0.00 0.00 66 1010.8
20260507063016 62 248 1.0 6.0 0.00 0.00 0.00 67 1010.8
20260507062056 62 225 1.0 4.0 0.00 0.00 0.00 68 1010.7
20260507061016 62 248 2.0 6.0 0.00 0.00 0.00 68 1010.6
20260507060016 60 248 1.0 4.0 0.00 0.00 0.00 72 1010.5
20260507055016 60 248 1.0 3.0 0.00 0.00 0.00 73 1010.5
20260507054016 59 248 1.0 3.0 0.00 0.00 0.00 74 1010.3
20260507053036 58 0.0 1.0 0.00 0.00 0.00 75 1010.1
20260507052016 58 225 1.0 3.0 0.00 0.00 0.00 75 1009.9
20260507051036 58 0.0 2.0 0.00 0.00 0.00 76 1009.7
20260507050016 57 0.0 1.0 0.00 0.00 0.00 75 1009.5
20260507045016 57 0.0 3.0 0.00 0.00 0.00 75 1009.5
20260507044016 57 248 1.0 4.0 0.00 0.00 0.00 75 1009.5
20260507043016 57 225 1.0 4.0 0.00 0.00 0.00 75 1009.6
20260507042116 57 225 2.0 5.0 0.00 0.00 0.00 75 1009.3
20260507041016 57 225 1.0 3.0 0.00 0.00 0.00 77 1009.2
20260507040016 57 225 1.0 3.0 0.00 0.00 0.00 77 1009.0
20260507035016 57 225 1.0 3.0 0.00 0.00 0.00 78 1009.0
20260507034016 57 225 1.0 3.0 0.00 0.00 0.00 78 1009.0
20260507033016 57 0.0 1.0 0.00 0.00 0.00 78 1008.9
20260507032016 57 0.0 2.0 0.00 0.00 0.00 78 1008.8
20260507031016 57 0.0 3.0 0.00 0.00 0.00 78 1008.8
20260507030056 57 248 1.0 3.0 0.00 0.00 0.00 78 1008.7
20260507025016 57 225 1.0 5.0 0.00 0.00 0.00 78 1008.7
20260507024036 56 0.0 3.0 0.00 0.00 0.00 79 1008.7
20260507023036 56 0.0 2.0 0.00 0.00 0.00 79 1008.7
20260507022016 57 0.0 2.0 0.00 0.00 0.00 79 1008.4
20260507021016 58 0.0 1.0 0.00 0.00 0.00 79 1008.3
20260507020016 58 0.0 2.0 0.00 0.00 0.00 79 1008.3
20260507015036 58 225 1.0 4.0 0.00 0.00 0.00 79 1008.2
20260507014036 58 225 1.0 5.0 0.00 0.00 0.00 79 1008.2
20260507013056 58 248 2.0 6.0 0.00 0.00 0.00 79 1008.1
20260507012016 57 225 1.0 4.0 0.00 0.00 0.00 80 1008.0
20260507011016 56 225 1.0 4.0 0.00 0.00 0.00 80 1008.0
20260507010016 57 0.0 1.0 0.00 0.00 0.00 78 1007.8
20260507005016 57 0.0 1.0 0.00 0.00 0.00 77 1007.7
20260507004016 58 248 2.0 7.0 0.00 0.00 0.00 76 1007.7
20260507003016 56 225 2.0 8.0 0.00 0.00 0.00 79 1007.5
20260507002016 57 225 1.0 4.0 0.00 0.00 0.00 79 1007.5
20260507001016 57 225 1.0 5.0 0.00 0.00 0.00 78 1007.4
20260507000016 58 225 1.0 4.0 0.00 0.00 0.00 78 1007.2
20260506235016 58 0.0 4.0 0.00 0.00 0.00 77 1007.0
20260506234036 59 203 1.0 4.0 0.00 0.00 0.00 76 1006.8
20260506233016 59 203 1.0 4.0 0.00 0.00 0.00 75 1006.8
20260506232016 60 225 2.0 6.0 0.00 0.00 0.00 74 1006.7
20260506231016 60 225 2.0 5.0 0.00 0.00 0.00 74 1006.7
20260506230056 61 225 2.0 6.0 0.00 0.00 0.00 73 1006.7
20260506225056 61 225 2.0 6.0 0.00 0.00 0.00 71 1006.5
20260506224016 61 225 2.0 6.0 0.00 0.00 0.00 71 1006.1
20260506223016 62 90 1.0 4.0 0.00 0.00 0.00 70 1005.9
20260506222016 62 113 1.0 6.0 0.00 0.00 0.00 69 1005.7
20260506221016 63 90 1.0 4.0 0.00 0.00 0.00 68 1005.6
20260506220016 63 90 1.0 8.0 0.00 0.00 0.00 68 1005.5
20260506215036 63 90 2.0 6.0 0.00 0.00 0.00 67 1005.4
20260506214016 63 68 1.0 4.0 0.00 0.00 0.00 66 1005.2
20260506213036 64 90 2.0 7.0 0.00 0.00 0.00 66 1005.2
20260506212016 64 68 1.0 7.0 0.00 0.00 0.00 65 1005.1
20260506211016 64 90 2.0 8.0 0.00 0.00 0.00 65 1005.3
20260506210016 65 113 2.0 6.0 0.00 0.00 0.00 64 1005.1
20260506205016 65 135 1.0 9.0 0.00 0.00 0.00 64 1005.1
20260506204036 65 90 2.0 6.0 0.00 0.00 0.00 63 1005.1
20260506203016 65 90 3.0 8.0 0.00 0.00 0.00 62 1005.0
20260506202016 66 90 3.0 13.0 0.00 0.00 0.00 62 1005.0
20260506201016 66 68 2.0 6.0 0.00 0.00 0.00 62 1004.9
20260506200016 66 90 3.0 12.0 0.00 0.00 0.00 61 1004.9
20260506195016 66 90 2.0 7.0 0.00 0.00 0.00 60 1004.6
20260506194016 67 90 3.0 8.0 0.00 0.00 0.00 60 1004.6
20260506193016 67 90 2.0 8.0 0.00 0.00 0.00 59 1004.6
20260506192016 67 90 3.0 6.0 0.00 0.00 0.00 59 1004.5
20260506191036 68 90 4.0 13.0 0.00 0.00 0.00 58 1004.3
20260506190016 68 90 4.0 10.0 0.00 0.00 0.00 58 1004.2
20260506185016 68 113 5.0 12.0 0.00 0.00 0.00 57 1004.2
20260506184016 68 90 3.0 6.0 0.00 0.00 0.00 57 1004.1
20260506183016 68 90 5.0 14.0 0.00 0.00 0.00 56 1004.0
20260506182016 69 90 3.0 8.0 0.00 0.00 0.00 56 1003.9
20260506181016 69 113 3.0 8.0 0.00 0.00 0.00 55 1003.8
20260506180056 69 90 4.0 12.0 0.00 0.00 0.00 55 1003.8
20260506175016 70 113 4.0 10.0 0.00 0.00 0.00 54 1003.9
20260506174016 70 90 3.0 9.0 0.00 0.00 0.00 53 1003.9
20260506173016 71 90 3.0 10.0 0.00 0.00 0.00 51 1003.9
20260506172016 71 90 4.0 9.0 0.00 0.00 0.00 51 1003.8
20260506171036 71 90 3.0 6.0 0.00 0.00 0.00 50 1003.7
20260506170016 72 90 2.0 6.0 0.00 0.00 0.00 50 1003.7
20260506165016 72 90 3.0 7.0 0.00 0.00 0.00 50 1003.8
20260506164016 73 113 2.0 7.0 0.00 0.00 0.00 49 1003.8
20260506163016 73 113 4.0 11.0 0.00 0.00 0.00 49 1003.9
20260506162016 73 113 3.0 11.0 0.00 0.00 0.00 49 1004.0
20260506161016 73 113 2.0 8.0 0.00 0.00 0.00 48 1004.1
20260506160037 73 90 3.0 9.0 0.00 0.00 0.00 48 1004.2
20260506155056 74 90 5.0 10.0 0.00 0.00 0.00 47 1004.2
20260506154016 74 90 4.0 12.0 0.00 0.00 0.00 47 1004.3
20260506153016 75 90 5.0 11.0 0.00 0.00 0.00 47 1004.3
20260506152016 75 113 4.0 13.0 0.00 0.00 0.00 47 1004.4